#timestamp,LO_Frequency,Hit,StdDev 
1588961555.8,286047011.9,P
1588961575.6,286047011.6,P
1588961595.4,286047012.0,P
1588961615.3,286047011.4,Y
1588961635.1,286047000.4,P
1588961655.9,286047000.2,N
1588961675.7,286046999.9,N
1588961695.5,286047002.3,N
1588961715.4,286047002.1,N
1588961735.2,286047001.8,N
1588961755.0,286047004.0,N
1588961756.0,286047004.0,N
1588961775.8,286047003.9,N
1588961795.6,286047003.4,N
1588961815.5,286047003.4,N
1588961835.3,286047005.8,N
1588961855.1,286047003.1,N
1588961875.9,286047003.5,N
1588961895.7,286047003.8,N
1588961915.6,286047003.6,N
1588961935.4,286047006.0,N
1588961955.2,286047007.5,N
1588961975.1,286047007.1,N
1588961976.0,286047007.1,N
1588961995.8,286047004.5,N
1588962015.6,286047007.6,N
1588962035.5,286047006.9,N
1588962055.3,286047006.9,N
1588962075.2,286047006.9,N
1588962095.9,286047007.4,N
1588962115.7,286047007.0,N
1588962135.6,286047007.5,N
1588962155.4,286047007.0,N
1588962175.2,286047006.2,N
1588962195.1,286047008.8,Y
1588962226.0,286047003.5,E
1588962235.0,286047001.8,N
1588962235.9,286047001.8,P
1588962255.8,286047000.9,P
1588962275.6,286046998.1,Y
1588962295.4,286046998.4,P
1588962315.3,286047000.5,N
1588962335.1,286047000.0,N
1588962355.9,286047002.7,N
1588962375.7,286047002.0,N
1588962395.5,286047004.4,Y
1588962415.4,286047002.0,P
1588962435.2,286047001.9,P
1588962455.1,286047001.6,P
1588962456.0,286047001.6,Y
1588962475.8,286047000.2,P
1588962495.6,286047000.2,N
1588962515.5,286047000.4,N
1588962535.3,286047000.3,N
1588962555.1,286047000.3,N
1588962575.9,286047000.2,N
1588962595.7,286047000.0,N
1588962615.6,286047002.8,Y
1588962635.4,286047002.2,P
1588962655.2,286047001.3,N
1588962675.1,286047004.0,P
1588962676.0,286047004.0,N
1588962695.8,286047003.3,N
1588962715.7,286047003.6,N
1588962735.5,286047006.0,Y
1588962755.3,286047001.5,P
1588962775.2,286047001.6,N
1588962795.0,286047003.9,P
1588962795.9,286047003.9,Y
1588962815.7,286046999.8,P
1588962835.6,286047002.3,N
1588962855.4,286047002.6,N
1588962875.3,286047001.6,N
1588962895.1,286047004.1,Y
1588962915.8,286046999.8,P
1588962935.7,286047002.2,N
1588962955.5,286047011.9,P
1588962975.3,286047004.1,N
1588962995.2,286047001.7,N
1588963015.0,286047003.6,N
1588963015.9,286047003.6,N
1588963035.8,286047003.2,N
1588963055.6,286047005.8,N
1588963075.4,286047005.1,N
1588963095.3,286047005.8,N
1588963115.1,286047005.2,N
1588963135.9,286047007.1,N
1588963155.7,286047006.1,N
1588963175.5,286047009.0,Y
1588963195.4,286047003.4,P
1588963215.2,286047005.5,P
1588963235.0,286047005.3,P
1588963236.0,286047005.3,Y
1588963255.8,286047000.1,P
1588963275.6,286047002.8,N
1588963295.5,286047002.2,N
1588963315.3,286047002.4,N
1588963335.1,286047001.7,N
1588963355.9,286047003.1,N
1588963375.7,286047002.9,N
1588963395.6,286047003.0,N
1588963415.4,286047004.6,Y
1588963435.2,286047003.7,P
1588963455.1,286047007.5,P
1588963456.0,286047007.5,P
1588963475.8,286047007.1,Y
1588963495.6,286046999.9,P
1588963515.5,286046998.1,N
1588963535.3,286047000.2,N
1588963555.2,286047001.7,N
1588963575.9,286047004.2,N
1588963595.7,286047003.8,N
1588963615.6,286047005.9,N
1588963635.4,286047005.8,N
1588963655.2,286047005.0,N
1588963675.1,286047004.5,N
1588963676.0,286047004.5,N
1588963695.8,286047007.3,N
1588963715.7,286047008.7,Y
1588963735.5,286047005.0,P
1588963755.3,286047007.4,P
1588963775.2,286047004.5,N
1588963795.0,286047006.4,Y
1588963795.9,286047006.4,P
1588963815.8,286047002.8,P
1588963835.6,286047002.6,N
1588963855.4,286047001.5,N
1588963875.3,286047002.2,N
1588963895.1,286047005.6,Y
1588963915.8,286047001.7,P
1588963935.7,286047004.0,P
1588963955.5,286047003.9,P
1588963975.4,286047004.4,Y
1588963995.2,286047000.8,P
1588964015.0,286047001.0,N
1588964015.9,286047001.0,N
1588964035.8,286047000.9,N
1588964055.6,286046999.8,N
1588964075.5,286047002.7,N
1588964095.3,286047002.2,N
1588964115.1,286047001.6,N
1588964135.9,286047002.0,N
1588964155.7,286047001.4,N
1588964175.5,286047001.4,N
1588964195.4,286047003.8,Y
1588964215.2,286047001.6,P
1588964235.1,286047001.7,P
1588964236.0,286047001.7,P
1588964255.8,286047001.4,Y
1588964275.6,286046999.8,P
1588964295